Date,TemperatureHighF,TemperatureAvgF,TemperatureLowF,DewpointHighF,DewpointAvgF,DewpointLowF,HumidityHigh,HumidityAvg,HumidityLow,PressureMaxIn,PressureMinIn,WindSpeedMaxMPH,WindSpeedAvgMPH,GustSpeedMaxMPH,PrecipitationSumIn
2013-1-1,31,11,4,13,4,-1,82,74,47,30.22,30.12,9,2,9,0.00
2013-1-2,33,19,8,19,11,0,80,71,47,30.15,30.04,9,1,9,0.00
2013-1-3,27,25,16,20,19,11,84,79,74,30.22,30.03,11,3,11,0.00
2013-1-4,39,28,11,24,18,6,83,68,51,30.18,30.06,12,3,12,0.00
2013-1-5,36,34,17,32,29,12,92,84,71,30.21,29.88,7,2,7,0.78
2013-1-6,44,28,15,31,22,10,89,78,56,30.29,29.87,12,2,12,2.93
2013-1-7,39,27,13,27,20,8,87,75,58,30.27,30.04,10,2,10,1.96
2013-1-8,43,33,22,32,27,18,87,78,63,30.13,29.95,9,2,9,0.00
2013-1-9,45,36,24,32,27,18,82,72,54,30.45,29.92,15,3,15,0.00
2013-1-10,43,32,20,35,27,16,93,82,69,30.48,29.90,8,1,8,2.72
2013-1-11,52,44,36,47,42,34,95,93,84,29.90,29.64,10,2,10,3.57
2013-1-12,52,40,26,47,33,21,86,77,66,30.00,29.65,15,3,15,0.00
2013-1-13,27,21,14,22,15,7,85,77,70,30.19,29.88,12,3,12,0.00
2013-1-14,33,18,10,18,9,5,80,69,48,30.43,30.19,8,1,8,0.00
2013-1-15,40,21,12,22,12,7,84,69,44,30.40,30.08,8,1,8,0.00
2013-1-16,33,25,15,28,18,9,82,74,59,30.08,29.77,10,2,10,0.00
2013-1-17,38,22,13,21,10,5,73,60,41,30.37,30.04,12,3,12,0.00
2013-1-18,44,29,12,31,22,5,80,73,60,30.40,29.83,13,3,13,4.64
2013-1-19,44,38,20,36,29,7,79,71,43,29.90,29.66,22,3,22,1.64
2013-1-20,27,14,8,8,1,-2,67,58,42,30.26,29.90,19,4,20,2.62
2013-1-21,12,6,-2,3,-4,-12,75,62,51,30.24,30.08,16,4,16,0.00
2013-1-22,15,3,-5,0,-8,-14,68,61,48,30.32,30.23,10,3,10,0.00
2013-1-23,18,12,3,12,4,-6,80,70,64,30.35,30.06,15,2,15,0.00
2013-1-24,21,12,1,9,2,-7,72,64,54,30.62,30.34,7,2,7,0.00
2013-1-25,25,20,16,18,12,6,83,73,58,30.34,29.94,8,3,8,0.00
2013-1-26,32,19,7,16,9,2,79,67,45,30.37,30.16,8,2,8,0.00
2013-1-27,32,28,22,30,22,14,91,79,67,30.34,29.88,10,3,10,0.00
2013-1-28,46,37,32,39,34,28,94,87,72,29.96,29.78,9,1,9,4.61
2013-1-29,59,45,36,56,43,33,96,93,89,29.84,29.46,8,1,8,16.48
2013-1-30,37,30,17,35,27,12,93,89,82,29.59,29.28,13,3,13,0.84
2013-1-31,18,12,3,12,6,-3,83,75,66,30.11,29.59,13,5,13,0.00
2013-2-1,11,4,-3,4,-3,-8,82,72,60,30.29,30.11,10,2,10,0.00
2013-2-2,23,11,3,12,4,-4,84,74,56,30.12,30.00,8,2,8,0.00
2013-2-3,26,15,4,14,7,-3,82,72,54,30.03,29.91,11,2,11,0.00
2013-2-4,25,16,7,17,10,1,83,76,68,30.01,29.91,8,1,8,0.00
2013-2-5,21,8,3,17,3,-3,86,79,75,29.94,29.79,5,1,5,0.00
2013-2-6,33,31,30,28,26,24,83,82,78,30.13,30.07,7,2,7,0.00
2013-2-7,35,32,24,32,29,21,92,87,83,30.10,29.89,5,1,5,0.00
2013-2-8,27,22,10,22,17,5,89,84,78,30.38,30.01,0,0,0,0.00
2013-2-9,29,17,5,25,14,0,88,85,81,30.37,30.07,0,0,0,0.00
2013-2-10,43,32,18,41,30,14,95,91,79,30.08,29.44,10,2,12,2.79
2013-2-11,41,32,26,35,26,20,85,80,75,29.97,29.45,18,5,18,9.14
2013-2-12,31,24,18,22,18,14,83,76,65,30.08,29.87,9,2,9,9.10
2013-2-13,32,27,18,28,23,14,87,84,81,29.87,29.70,2,0,2,0.00
2013-2-14,36,33,28,33,28,21,89,82,75,29.97,29.58,16,3,16,8.63
2013-2-15,32,23,14,24,13,5,84,67,50,30.17,29.96,10,2,10,0.00
2013-2-16,24,14,5,8,3,-3,74,63,48,30.17,30.11,0,0,0,0.00
2013-2-17,29,18,1,14,5,-5,77,60,41,30.19,29.97,0,0,0,0.00
2013-2-18,47,34,24,39,26,13,90,74,64,29.97,29.43,0,0,0,2.14
2013-2-19,32,16,8,28,10,0,89,78,70,30.13,29.50,0,0,0,9.43
2013-2-20,26,16,5,14,7,-1,77,68,58,30.34,30.13,1,0,1,0.81
2013-2-21,27,21,12,23,16,6,85,80,76,30.39,30.05,10,2,10,0.00
2013-2-22,32,28,24,28,24,21,91,86,82,30.04,29.77,7,2,7,0.00
2013-2-23,32,26,21,23,20,15,86,78,66,29.92,29.82,8,2,8,2.94
2013-2-24,43,24,14,30,17,10,86,76,54,30.09,29.92,5,1,5,5.56
2013-2-25,32,30,29,24,24,23,79,76,69,30.08,30.02,3,0,3,0.00
2013-2-26,35,33,29,30,27,24,91,80,71,30.02,29.62,13,2,13,0.00
2013-2-27,32,32,31,29,29,28,90,89,89,29.74,29.69,6,2,6,0.01
2013-2-28,36,31,25,30,27,20,90,83,75,30.10,29.73,10,3,10,0.08
2013-3-1,26,24,22,21,19,16,82,79,76,30.21,30.07,10,3,10,0.00
2013-3-2,35,23,9,21,14,2,78,68,54,30.20,30.13,10,2,10,0.70
2013-3-3,40,19,1,22,7,-5,82,62,40,30.13,30.06,6,0,6,1.70
2013-3-4,39,23,5,26,15,-2,77,71,54,30.11,30.02,0,0,0,1.47
2013-3-5,32,30,26,28,25,22,88,82,75,30.03,29.87,0,0,0,0.00
2013-3-6,36,31,26,28,25,22,85,79,72,30.28,30.03,0,0,0,1.22
2013-3-7,42,31,18,28,21,12,81,68,51,30.41,30.27,0,0,0,4.68
2013-3-8,45,28,12,31,20,6,83,73,56,30.44,30.26,8,1,8,6.82
2013-3-9,42,35,26,34,30,22,87,80,71,30.26,29.81,9,2,9,5.33
2013-3-10,44,38,35,42,36,31,94,92,86,29.81,29.62,6,1,6,5.71
2013-3-11,38,35,31,37,33,27,95,93,87,29.73,29.52,8,2,8,5.30
2013-3-12,35,30,25,28,24,20,89,82,64,29.97,29.73,10,3,10,0.08
2013-3-13,36,26,19,20,15,10,82,64,41,30.27,29.97,12,4,12,0.05
2013-3-14,36,27,18,26,18,10,87,69,50,30.27,30.04,6,1,6,0.00
2013-3-15,38,32,29,33,28,25,88,85,79,30.04,29.79,6,1,6,1.21
2013-3-16,38,30,26,29,24,19,88,77,60,30.11,29.77,9,2,9,3.74
2013-3-17,28,24,20,22,16,11,78,71,68,30.22,30.00,0,0,0,3.90
2013-3-18,36,29,19,31,24,12,89,82,72,30.00,29.57,15,1,15,3.72
2013-3-19,33,22,14,17,12,7,77,65,48,30.00,29.69,0,0,0,4.48
2013-3-20,25,17,11,10,5,1,65,59,49,30.04,29.99,0,0,0,4.96
2013-3-21,34,21,10,18,9,1,70,60,47,30.02,29.96,0,0,0,4.79
2013-3-22,40,26,12,22,13,5,76,59,40,30.06,29.98,0,0,0,4.80
2013-3-23,48,32,18,27,20,11,80,63,36,30.13,30.03,0,0,0,4.63
2013-3-24,38,32,30,29,25,20,78,74,68,30.04,29.73,0,0,0,4.95
2013-3-25,36,31,28,28,24,21,82,75,65,29.96,29.75,0,0,0,3.44
2013-3-27,34,30,28,21,20,18,69,64,58,30.28,30.26,0,0,0,0.52
2013-3-28,50,38,23,29,22,17,77,56,38,30.31,30.26,0,0,0,4.64
2013-3-29,54,38,23,32,23,17,81,56,33,30.28,30.20,0,0,0,2.59
2013-3-30,56,42,26,40,31,19,79,63,48,30.20,29.78,0,0,0,0.00
2013-3-31,54,43,32,42,34,22,87,74,51,29.86,29.67,0,0,0,0.00
2013-4-1,40,32,27,23,18,13,76,55,42,30.13,29.86,0,0,0,0.00
2013-4-2,44,32,22,20,15,13,68,52,33,30.27,30.13,9,0,9,0.00
2013-4-3,50,35,22,23,17,13,71,49,25,30.40,30.25,0,0,0,0.00
2013-4-4,59,43,26,34,25,14,64,50,34,30.25,29.92,0,0,0,0.00
2013-4-5,45,35,30,31,25,22,76,67,54,30.21,29.99,0,0,0,0.00
2013-4-6,62,51,37,44,35,28,72,53,42,29.98,29.59,0,0,0,0.33
2013-4-7,51,40,35,35,30,28,78,69,54,29.96,29.91,0,0,0,0.00
2013-4-8,54,43,35,47,38,28,90,83,75,29.95,29.55,7,0,7,1.96
2013-4-9,41,39,37,38,36,34,94,92,87,29.99,29.62,0,0,0,3.78
2013-4-10,39,36,34,36,34,32,93,92,90,30.09,29.74,0,0,0,2.20
2013-4-11,38,37,35,36,35,33,94,93,92,29.78,29.35,0,0,0,1.32
2013-4-12,42,38,35,39,35,30,94,90,83,29.78,29.51,0,0,0,5.65
2013-4-13,40,36,32,31,29,26,85,77,64,29.97,29.77,0,0,0,2.28
2013-4-14,33,32,31,30,28,26,90,85,79,29.98,29.91,0,0,0,0.00
2013-4-15,48,43,41,40,39,38,90,86,71,29.94,29.54,0,0,0,1.63
2013-4-16,58,44,33,40,35,30,90,74,49,30.16,29.70,3,0,3,4.88
2013-4-17,43,41,38,41,36,31,93,82,68,29.95,29.31,0,0,0,0.52
2013-4-18,53,46,40,52,44,34,95,92,80,29.51,28.94,0,0,0,4.11
2013-4-19,40,36,32,34,29,24,82,74,65,29.77,29.25,0,0,0,0.17
2013-4-20,47,36,26,25,22,18,76,58,37,30.38,29.38,0,0,0,0.01
2013-4-21,52,41,29,32,27,22,80,60,40,30.58,29.86,0,0,0,0.69
2013-4-22,70,52,37,43,35,29,75,54,33,30.37,30.11,0,0,0,0.00
2013-4-23,54,44,38,48,39,33,89,81,63,30.11,29.97,0,0,0,2.05
2013-4-24,54,43,34,33,29,24,83,60,34,30.12,30.01,0,0,0,0.00
2013-4-25,53,45,38,37,32,28,84,62,41,30.37,30.05,0,0,0,0.08
2013-4-26,70,53,35,46,38,27,77,58,41,30.37,30.25,0,0,0,0.00
2013-4-27,71,58,44,49,44,38,84,62,40,30.33,30.10,0,0,0,0.00
2013-4-28,72,58,50,50,45,40,80,64,44,30.10,29.90,0,0,0,0.00
2013-4-29,72,59,47,57,50,43,90,73,49,29.97,29.84,0,0,0,1.03
2013-4-30,85,74,62,62,56,52,83,55,35,30.04,29.82,0,0,0,4.22
2013-5-1,86,71,47,57,52,37,74,53,25,30.30,30.04,0,0,0,3.74
2013-5-2,63,50,39,48,40,34,89,70,50,30.34,30.22,0,0,0,6.86
2013-5-3,48,44,38,46,41,36,92,90,88,30.26,30.06,0,0,0,6.96
2013-5-4,72,57,45,54,47,42,90,71,45,30.13,30.05,0,0,0,0.01
2013-5-5,77,60,45,50,44,38,83,58,33,30.15,30.10,0,0,0,0.00
2013-5-6,80,63,46,48,40,34,76,48,23,30.15,30.08,0,0,0,0.00
2013-5-7,81,64,46,47,42,38,76,48,24,30.15,30.08,0,0,0,0.00
2013-5-8,82,64,46,54,45,39,80,54,28,30.13,30.05,0,0,0,0.00
2013-5-9,69,57,44,58,49,41,90,75,55,30.05,29.96,0,0,0,0.81
2013-5-10,45,44,42,42,41,40,92,91,89,30.02,29.91,0,0,0,3.07
2013-5-11,55,49,40,43,34,29,82,57,45,30.09,29.91,0,0,0,0.00
2013-5-12,55,45,36,32,29,26,69,55,36,30.18,30.09,0,0,0,0.00
2013-5-13,64,48,33,37,32,28,86,57,27,30.24,30.03,0,0,0,0.00
2013-5-14,88,66,44,59,49,33,73,55,31,30.04,29.66,0,0,0,0.01
2013-5-15,82,72,56,60,50,44,65,46,28,29.94,29.66,0,0,0,0.00
2013-5-16,86,66,53,54,45,35,71,49,30,30.08,29.93,0,0,0,0.00
2013-5-17,55,54,49,46,40,35,85,62,49,30.19,30.07,0,0,0,0.33
2013-5-18,82,73,59,63,59,53,80,62,51,30.12,30.05,0,0,0,0.00
2013-5-19,86,71,55,68,60,50,88,70,51,30.05,29.79,0,0,0,0.00
2013-5-20,86,75,65,65,60,57,88,63,39,29.86,29.77,0,0,0,0.07
2013-5-21,80,70,62,65,60,54,89,72,48,29.81,29.73,0,0,0,9.19
2013-5-22,68,61,54,64,57,52,92,87,78,29.86,29.72,0,0,0,4.74
2013-5-23,58,51,40,52,47,34,93,87,69,30.38,29.86,0,0,0,0.08
2013-5-24,65,46,35,45,36,30,88,71,40,30.50,30.37,0,0,0,0.00
2013-5-25,63,53,42,44,39,35,82,62,42,30.46,30.36,0,0,0,0.00
2013-5-26,70,57,38,48,42,33,80,60,39,30.37,30.23,0,0,0,0.01
2013-5-27,54,52,51,51,48,41,91,85,66,30.23,29.97,0,0,0,0.70
2013-5-28,73,61,51,68,59,48,96,91,81,29.97,29.78,0,0,0,3.12
2013-5-29,83,71,62,68,64,61,96,80,58,30.00,29.84,0,0,0,1.30
2013-5-30,85,76,64,70,66,60,90,73,56,29.98,29.84,0,0,0,0.51
2013-5-31,77,68,63,69,62,60,93,83,64,29.95,29.79,0,0,0,5.70
2013-6-1,77,69,63,65,63,59,91,82,63,29.79,29.71,0,0,0,0.13
2013-6-2,62,56,47,58,47,43,88,72,64,30.09,29.76,0,0,0,0.01
2013-6-3,71,58,44,51,45,40,91,66,39,30.17,30.08,0,0,0,0.01
2013-6-4,75,59,49,53,46,42,85,66,43,30.25,30.15,0,0,0,0.00
2013-6-5,66,58,52,54,50,44,85,73,64,30.21,30.04,0,0,0,0.41
2013-6-6,62,56,53,55,51,48,89,83,76,30.05,29.97,0,0,0,4.07
2013-6-7,60,54,51,55,49,47,89,84,76,30.05,30.00,0,0,0,1.27
2013-6-8,76,67,55,55,50,47,78,56,44,30.10,30.03,0,0,0,0.00
2013-6-9,82,68,54,63,56,48,81,68,50,30.10,29.90,0,0,0,0.00
2013-6-10,81,69,61,68,62,56,88,78,58,29.95,29.85,0,0,0,0.00
2013-6-11,85,72,58,67,62,54,92,71,49,30.00,29.88,0,0,0,0.66
2013-6-12,78,70,63,69,64,60,93,82,70,29.99,29.73,0,0,0,6.65
2013-6-13,78,66,56,62,57,49,93,73,52,30.15,29.77,0,0,0,0.00
2013-6-14,78,64,52,61,53,47,87,69,49,30.22,30.09,0,0,0,0.00
2013-6-15,79,67,55,71,61,49,92,82,72,30.15,29.90,0,0,0,1.82
2013-6-16,85,74,62,68,62,55,92,71,40,29.99,29.92,0,0,0,0.30
2013-6-17,88,73,59,66,59,53,87,65,41,30.04,29.93,0,0,0,0.04
2013-6-18,74,65,53,61,53,42,85,64,48,30.16,30.04,0,0,0,0.00
2013-6-19,78,65,46,55,49,41,84,60,41,30.23,30.15,0,0,0,0.00
2013-6-20,87,67,52,65,55,46,82,66,42,30.23,30.14,0,0,0,0.00
2013-6-21,74,68,60,69,63,54,94,83,71,30.20,29.97,0,0,0,3.90
2013-6-22,72,68,66,69,66,64,94,93,88,30.20,30.02,0,0,0,3.67
2013-6-23,87,80,70,75,70,64,82,70,63,30.05,29.95,0,0,0,0.00
2013-6-24,80,73,67,70,67,63,91,82,69,30.10,29.91,0,0,0,0.00
2013-6-25,82,73,66,74,69,64,95,87,73,30.01,29.88,0,0,0,11.81
2013-6-26,78,72,67,71,68,64,95,86,75,29.92,29.78,0,0,0,1.39
2013-6-27,88,75,64,75,69,62,95,81,56,29.85,29.76,0,0,0,2.40
2013-6-28,80,72,63,66,63,60,92,75,57,29.79,29.68,0,0,0,8.50
2013-6-29,76,68,64,64,60,55,90,78,54,29.89,29.69,0,0,0,4.07
2013-6-30,81,69,59,63,54,46,80,62,40,30.10,29.89,0,0,0,3.75
2013-7-1,81,69,56,58,52,46,75,57,38,30.18,30.10,0,0,0,0.00
2013-7-2,79,65,56,58,53,49,83,67,43,30.19,30.14,0,0,0,1.81
2013-7-3,68,64,60,63,59,53,88,82,73,30.15,30.09,0,0,0,2.77
2013-7-4,84,75,59,67,62,56,93,65,41,30.17,30.09,0,0,0,0.00
2013-7-5,86,73,61,68,62,57,89,70,47,30.15,30.08,0,0,0,0.00
2013-7-6,87,74,61,68,62,57,89,70,44,30.13,30.03,0,0,0,0.00
2013-7-7,90,78,67,74,69,62,90,74,51,30.07,29.99,0,0,0,0.00
2013-7-8,87,76,71,77,71,68,91,83,69,30.06,29.98,0,0,0,0.24
2013-7-9,82,74,67,76,70,64,93,88,77,30.07,29.90,0,0,0,0.42
2013-7-10,81,75,62,73,65,56,92,73,49,30.08,29.90,0,0,0,0.00
2013-7-11,85,69,57,64,57,52,89,68,41,30.18,30.08,0,0,0,0.00
2013-7-12,85,68,54,62,55,49,87,66,40,30.23,30.15,0,0,0,0.00
2013-7-13,87,72,56,66,59,52,90,66,43,30.24,30.17,0,0,0,0.00
2013-7-14,70,65,62,66,59,57,85,81,75,30.26,30.22,0,0,0,0.00
2013-7-15,77,76,74,70,70,69,83,82,80,30.32,30.31,0,0,0,0.00
2013-7-16,93,81,72,77,73,67,90,76,56,30.35,30.28,0,0,0,0.00
2013-7-17,95,84,73,77,73,69,90,70,53,30.36,30.22,0,0,0,0.00
2013-7-18,93,83,72,76,72,68,89,70,52,30.24,29.98,0,0,0,0.00
2013-7-19,93,83,72,75,71,67,83,70,53,29.98,29.81,0,0,0,0.07
2013-7-20,88,73,65,69,63,57,87,71,45,30.04,29.88,0,0,0,0.01
2013-7-21,86,70,62,70,62,56,90,78,56,30.05,29.94,0,0,0,1.01
2013-7-22,86,74,62,73,67,59,94,79,56,29.96,29.77,0,0,0,0.00
2013-7-23,77,71,64,64,60,55,90,72,50,29.97,29.77,0,0,0,0.07
2013-7-24,75,72,54,58,56,50,84,58,48,30.14,30.10,0,0,0,0.00
2013-7-25,80,74,69,63,61,58,75,63,52,30.15,30.04,0,0,0,0.00
2013-7-26,70,66,59,66,62,56,94,87,72,30.05,29.92,0,0,0,0.33
2013-7-27,62,58,54,57,51,49,91,79,64,29.99,29.92,0,0,0,0.00
2013-7-28,68,59,53,55,51,49,87,76,61,30.05,29.89,0,0,0,0.01
2013-7-29,76,64,53,61,55,49,86,73,53,30.24,30.05,0,0,0,0.00
2013-7-30,58,56,53,53,51,49,85,84,83,30.24,30.21,0,0,0,0.00
2013-8-11,69,67,66,64,63,63,88,86,84,30.10,30.09,0,0,0,0.05
2013-8-12,81,71,65,71,65,60,94,84,60,30.10,29.95,0,0,0,1.00
2013-8-13,74,63,53,58,51,47,83,66,49,30.22,30.04,0,0,0,0.00
2013-8-14,74,63,50,56,52,45,86,67,48,30.27,30.18,0,0,0,0.00
2013-8-15,78,69,54,61,56,49,87,66,47,30.20,30.14,0,0,0,0.00
2013-8-16,83,68,54,64,57,49,89,70,46,30.26,30.17,0,0,0,0.00
2013-8-17,82,66,52,65,56,46,90,71,47,30.31,30.23,0,0,0,0.00
2013-8-18,82,64,52,65,55,47,90,74,49,30.28,30.15,0,0,0,0.00
2013-8-19,84,69,54,67,59,49,89,72,48,30.16,30.08,0,0,0,0.00
2013-8-20,86,73,61,69,63,56,90,73,52,30.15,30.08,0,0,0,0.00
2013-8-21,89,78,66,72,67,61,88,71,53,30.11,29.97,0,0,0,0.02
2013-8-22,76,70,65,71,66,61,92,87,78,30.20,30.05,0,0,0,1.19
2013-8-23,83,69,56,68,60,53,93,74,49,30.24,30.17,0,0,0,0.00
2013-8-24,84,70,54,68,60,49,92,73,51,30.31,30.21,0,0,0,0.00
2013-8-25,89,76,63,73,64,58,85,70,45,30.26,30.15,0,0,0,0.00
2013-8-26,90,81,72,76,71,64,80,71,62,30.19,30.02,0,0,0,0.00
2013-8-27,94,84,72,77,72,67,88,70,53,30.02,29.86,0,0,0,0.00
2013-8-28,88,82,70,74,71,63,87,71,63,30.09,29.89,0,0,0,0.00
2013-8-29,90,76,63,74,66,58,91,74,54,30.14,30.03,0,0,0,0.00
2013-8-30,96,76,67,78,69,62,90,79,47,30.04,29.81,0,0,0,0.54
2013-8-31,78,70,63,70,65,59,91,84,75,29.93,29.85,0,0,0,0.01
2013-9-1,85,71,59,73,65,56,94,82,66,29.88,29.76,0,0,0,0.13
2013-9-2,74,66,57,63,59,51,90,78,59,30.05,29.87,0,0,0,0.01
2013-9-3,76,63,50,59,53,46,89,72,48,30.13,30.05,0,0,0,0.00
2013-9-4,83,67,52,67,58,47,91,74,52,30.18,30.07,0,0,0,0.00
2013-9-5,77,67,53,62,56,46,85,69,47,30.33,30.18,0,0,0,0.00
2013-9-6,85,67,48,69,57,43,89,72,55,30.28,30.04,0,0,0,0.00
2013-9-7,81,72,64,73,66,60,91,82,63,30.05,29.94,0,0,0,0.19
2013-9-8,72,68,65,66,64,61,90,86,79,30.11,30.01,0,0,0,0.00
2013-9-9,91,80,65,78,72,62,93,78,63,30.04,29.84,0,0,0,0.00
2013-9-10,95,83,75,72,66,61,74,57,36,30.00,29.87,0,0,0,0.00
2013-9-11,83,75,68,69,66,62,83,73,57,30.14,29.99,0,0,0,0.00
2013-9-12,79,68,58,66,58,48,91,71,49,30.17,30.01,0,0,0,0.00
2013-9-13,70,59,48,48,45,41,80,62,41,30.25,30.17,0,0,0,0.00
2013-9-15,59,57,54,56,54,51,92,90,86,30.25,30.09,0,0,0,0.00
2013-9-16,68,55,44,54,46,39,87,73,53,30.41,30.25,0,0,0,0.00
2013-9-17,72,55,41,58,47,36,90,76,56,30.37,30.15,0,0,0,0.00
2013-9-18,78,63,57,68,58,52,89,85,67,30.15,29.95,0,0,0,0.06
2013-9-19,83,72,65,74,67,62,94,87,73,29.98,29.80,0,0,0,0.62
2013-9-20,74,67,58,67,61,53,94,83,66,29.86,29.78,0,0,0,0.01
2013-9-21,61,56,49,53,49,44,88,78,66,29.99,29.85,0,0,0,0.00
2013-9-22,69,54,44,51,45,40,87,72,44,30.11,29.98,0,0,0,0.00
2013-9-23,71,54,41,56,45,36,90,74,55,30.15,30.07,0,0,0,0.00
2013-9-24,76,58,43,59,48,39,91,72,51,30.10,30.00,0,0,0,0.00
2013-9-25,76,58,44,59,48,39,91,72,52,30.03,29.98,0,0,0,0.00
2013-9-26,80,58,43,61,48,38,90,70,42,30.13,30.02,0,0,0,0.00
2013-9-27,82,62,44,60,50,39,89,68,44,30.20,30.10,0,0,0,0.00
2013-9-28,81,66,54,64,56,49,88,72,48,30.11,29.89,0,0,0,0.11
2013-9-29,74,59,47,56,48,42,91,71,38,30.10,29.99,0,0,0,0.01
2013-9-30,74,56,42,52,44,36,88,67,42,30.04,29.89,0,0,0,0.00
2013-10-3,67,67,66,64,63,63,91,89,87,29.95,29.92,0,0,0,0.00
2013-10-4,67,64,62,65,62,59,94,91,88,30.06,29.92,0,0,0,0.00
2013-10-5,73,65,62,70,64,60,96,94,88,30.01,29.78,0,0,0,0.00
2013-10-6,64,55,47,63,47,42,94,77,53,29.81,29.71,0,0,0,0.00
2013-10-7,70,55,46,52,46,41,91,74,47,30.11,29.74,0,0,0,0.00
2013-10-8,78,57,41,55,46,36,90,68,35,30.19,30.11,0,0,0,0.00
2013-10-9,77,59,47,53,47,41,87,66,35,30.26,30.17,0,0,0,0.00
2013-10-10,79,58,42,58,46,37,91,69,39,30.20,30.08,0,0,0,0.00
2013-10-11,78,60,47,61,50,41,88,72,50,30.10,29.99,0,0,0,0.00
2013-10-12,68,59,47,64,52,41,90,80,55,30.19,29.97,0,0,0,0.00
2013-10-13,66,51,39,47,40,34,89,69,43,30.42,30.19,0,0,0,0.00
2013-10-14,67,49,36,51,40,30,89,72,51,30.44,30.16,0,0,0,0.00
2013-10-15,61,53,46,59,49,42,94,86,79,30.16,29.76,0,0,0,0.00
2013-10-16,54,50,45,50,46,41,91,88,84,29.95,29.81,0,0,0,0.01
2013-10-17,51,47,40,47,44,37,91,89,81,29.94,29.84,0,0,0,0.00
2013-10-18,50,43,37,44,39,34,93,85,75,29.95,29.82,0,0,0,0.00
2013-10-19,56,45,37,41,37,34,89,75,48,29.92,29.76,0,0,0,0.00
2013-10-20,52,44,34,46,38,29,89,80,60,29.87,29.74,0,0,0,0.04
2013-10-21,48,41,32,44,33,25,86,73,59,29.95,29.76,0,0,0,0.00
2013-10-22,48,37,30,34,28,23,79,70,54,29.97,29.90,0,0,0,0.00
2013-10-23,34,31,29,28,26,23,81,80,79,29.99,29.92,0,0,0,0.00
2013-10-29,44,43,42,39,38,37,85,83,80,30.19,30.15,0,0,0,0.00
2013-10-30,58,50,41,55,46,36,93,88,83,30.15,29.76,0,0,0,0.00
2013-10-31,62,57,45,61,55,41,96,93,88,29.77,29.26,0,0,0,0.69
2013-11-1,46,44,42,43,41,38,90,88,85,29.74,29.35,0,0,0,0.04
2013-11-2,47,42,40,43,39,37,93,87,77,30.14,29.74,0,0,0,0.00
2013-11-3,56,43,31,42,36,28,94,77,48,30.30,30.14,0,0,0,0.01
2013-11-4,56,49,42,45,40,37,85,72,57,30.25,30.06,0,0,0,0.00
2013-11-5,56,51,48,49,46,43,91,82,76,30.25,29.92,0,0,0,0.02
2013-11-6,56,41,31,54,37,26,94,86,77,30.15,29.75,0,0,0,0.25
2013-11-7,44,33,27,35,28,23,86,82,68,30.22,30.14,0,0,0,0.00
2013-11-8,46,37,26,34,30,22,89,76,62,30.29,29.86,0,0,0,0.01
2013-11-9,54,49,41,42,38,27,77,67,56,30.05,29.77,0,0,0,0.00
2013-11-10,54,45,37,33,31,27,69,57,42,30.31,30.06,0,0,0,0.00
2013-11-11,44,34,24,34,26,17,86,75,64,30.51,30.05,0,0,0,0.06
2013-11-12,38,27,20,23,18,14,78,67,49,30.67,30.51,0,0,0,0.03
2013-11-13,44,34,18,21,18,12,79,53,33,30.53,30.08,0,0,0,0.00
2013-11-14,48,39,32,30,25,18,69,57,47,30.08,29.90,0,0,0,0.00
2013-11-15,58,44,36,36,30,27,73,60,41,29.95,29.89,0,0,0,0.00
2013-11-16,58,51,33,55,48,27,94,90,76,29.92,29.54,0,0,0,0.22
2013-11-17,64,53,39,61,50,35,96,89,80,29.67,29.08,0,0,0,1.59
2013-11-18,41,35,27,35,27,20,84,74,61,30.24,29.67,0,0,0,0.00
2013-11-19,51,31,21,34,23,17,85,73,50,30.36,30.23,0,0,0,0.00
2013-11-20,45,36,30,33,29,25,88,75,53,30.26,30.10,0,0,0,0.08
2013-11-21,45,41,37,41,38,33,91,87,83,30.23,30.10,0,0,0,0.01
2013-11-22,47,34,25,37,28,18,89,77,53,30.46,30.21,0,0,0,0.02
2013-11-23,27,20,13,18,9,3,75,62,48,30.68,30.38,0,0,0,0.00
2013-11-24,32,19,9,11,6,3,76,58,36,30.66,30.27,0,0,0,0.00
2013-11-25,29,26,21,25,19,8,88,75,55,30.27,30.02,0,0,0,0.00
2013-11-26,32,26,14,26,17,5,83,69,58,30.17,30.01,0,0,0,0.00
2013-11-27,39,20,10,20,10,3,78,67,44,30.23,30.15,0,0,0,0.00
2013-11-28,40,24,15,24,14,8,74,67,48,30.47,30.15,0,0,0,0.00
2013-11-29,38,22,10,24,14,4,82,71,51,30.61,30.34,0,0,0,0.00
2013-11-30,53,34,24,35,26,18,81,71,49,30.34,30.03,0,0,0,0.00
2013-12-1,55,35,27,36,26,21,83,71,43,30.13,29.98,0,0,0,0.00
2013-12-2,46,32,21,35,26,16,86,77,61,29.98,29.78,0,0,0,0.04
2013-12-3,40,38,34,38,36,30,94,91,85,29.78,29.69,0,0,0,0.17
2013-12-4,51,43,37,49,41,33,96,93,85,29.76,29.48,0,0,0,0.03
2013-12-5,37,26,17,33,19,10,89,74,61,30.23,29.62,0,0,0,0.00
2013-12-6,29,15,9,14,6,1,77,69,48,30.50,30.21,0,0,0,0.00
2013-12-7,31,11,3,12,2,-3,75,65,42,30.65,30.50,0,0,0,0.00
2013-12-8,25,19,7,22,13,0,87,78,68,30.57,29.91,0,0,0,0.00
2013-12-9,25,15,-2,22,8,-9,88,74,48,30.15,29.88,0,0,0,0.00
2013-12-10,27,9,-6,14,1,-12,82,71,51,30.23,29.91,0,0,0,0.00
2013-12-11,24,10,-4,10,0,-14,81,65,41,30.49,30.21,0,0,0,0.00
2013-12-12,28,10,-5,11,0,-13,74,67,46,30.46,30.14,0,0,0,0.00
2013-12-13,32,22,13,23,15,7,82,76,66,30.18,30.10,0,0,0,0.00
2013-12-14,31,26,20,26,21,16,85,83,79,30.13,29.90,0,0,0,0.00
2013-12-15,28,14,5,17,5,-5,85,68,43,30.10,29.87,0,0,0,0.00
2013-12-16,18,9,-2,10,1,-10,83,70,53,30.13,29.97,0,0,0,0.00
2013-12-17,44,26,14,30,19,10,88,76,52,30.03,29.88,0,0,0,0.08
2013-12-18,37,25,10,26,15,4,79,67,42,30.10,29.76,0,0,0,0.00
2013-12-19,34,30,23,30,25,18,89,81,74,29.95,29.77,0,0,0,0.01
2013-12-20,32,29,26,29,26,23,90,89,88,29.86,29.77,0,0,0,0.00
2013-12-21,32,28,25,30,26,22,93,91,90,29.87,29.65,0,0,0,0.00
2013-12-22,34,27,20,29,24,16,92,87,78,30.08,29.64,0,0,0,0.02
2013-12-23,20,12,0,17,8,-6,89,83,78,30.37,30.08,0,0,0,0.00
2013-12-24,30,8,-5,16,1,-9,84,75,52,30.48,30.27,0,0,0,0.00
2013-12-25,23,20,12,20,16,7,87,85,82,30.28,30.03,0,0,0,0.00
2013-12-26,25,20,12,22,16,7,88,84,79,30.23,30.03,0,0,0,0.00
2013-12-27,38,28,15,31,23,11,91,82,70,30.24,29.99,0,0,0,0.11
2013-12-28,49,37,25,36,30,21,88,76,57,30.03,29.74,0,0,0,0.20
2013-12-29,40,23,2,31,16,-5,85,76,68,30.17,29.72,0,0,0,0.00
2013-12-30,8,1,-9,-2,-7,-16,76,69,57,30.28,30.14,0,0,0,0.00
2013-12-31,10,5,0,3,-1,-6,79,75,69,30.31,30.13,0,0,0,0.00
2014-1-1,18,11,4,12,5,-4,80,76,69,30.30,30.21,0,0,0,0.00
2014-1-2,12,11,10,7,6,5,82,80,79,30.25,30.17,0,0,0,0.00